Regional Weather Roundup
Issued by NWS

Home | Current Version | Previous Version | Graphics & Text | Print | Product List | Glossary On
Versions: 1 2 3 4 5 6 7 8 9 10 11 12 13 14 15 16 17 18 19 20 21 22 23 24 25 26 27
000
ASUS45 KSLC 281910
RWRUT

UTAH REGIONAL WEATHER ROUNDUP
NATIONAL WEATHER SERVICE SALT LAKE CITY UT
100 PM MDT THU APR 28 2016

UTZ001>011-023>025-282000-

NORTHERN UTAH

CITY           SKY/WX    TMP DP  RH WIND       PRES   REMARKS
BRIGHAM CITY   CLOUDY    55  31  40 E15G25    29.76S
HILL AFB       PTSUNNY   43  34  70 E18G26    29.76R
LOGAN          PTSUNNY   55  32  41 E18G24    29.77S
OGDEN          LGT RAIN  47  34  60 CALM      29.76R
PROVO AIRPORT  PTSUNNY   54  39  58 NW12G20   29.71
SALT LAKE CITY CLOUDY    53  36  52 VRB3      29.73S
VERNAL         LGT RAIN  39  36  89 NE9       29.81F WCI  33
WENDOVER       CLOUDY    50  36  57 SE5       29.78S
HEBER CITY     DRIZZLE   43  34  70 N10       29.75S

$$

UTZ012>022-026-027-282000-

SOUTHERN/CENTRAL UTAH

CITY           SKY/WX    TMP DP  RH WIND       PRES   REMARKS
BLANDING       PTSUNNY   53  31  41 S12G17    29.81F
BRYCE CANYON   CLOUDY    35  32  88 SE7       29.75S WCI  29
CEDAR CITY     PTSUNNY   50  34  54 SW8       29.68S
DELTA          PTSUNNY   52  41  66 NE3       29.70S
HANKSVILLE     CLOUDY    46  41  81 W5        29.76R
MILFORD        CLOUDY    49  39  68 CALM      29.70S
MOAB/CYNLANDS  CLOUDY    44  39  82 N9        29.73F
PRICE          LGT SNOW  35  33  92 E15       29.76R FOG     WCI  25
ST GEORGE      CLOUDY    55  37  50 W10       29.72S
KANAB            N/A    N/A N/A N/A MISG        N/A

$$

REGIONAL REPORTS     COLORADO/ARIZONA

CITY           SKY/WX    TMP DP  RH WIND       PRES   REMARKS
CRAIG, CO      CLOUDY    40  36  86 CALM      29.81S
GRAND JUNCTION LGT RAIN  47  43  86 NW9       29.75R
RIFLE          CLOUDY    49  39  68 VRB3      29.76F
MONTROSE       PTSUNNY   56  37  49 NW10      29.73S
CORTEZ         PTSUNNY   57  20  23 SW20      29.75S
PAGE, AZ       CLOUDY    49  40  71 CALM      29.71F
GRAND CANYON   SNOW      34  33  96 SW12      29.78R VSB 1/4 WCI  25
KINGMAN        LGT RAIN  48  42  80 S8        29.76R
FLAGSTAFF      PTSUNNY   43  21  41 W20G36    29.75R

$$

REGIONAL REPORTS    NEVADA/IDAHO/WYOMING

CITY           SKY/WX    TMP DP  RH WIND       PRES   REMARKS
LAS VEGAS, NV  PTSUNNY   63  46  54 NE5       29.65R
ELY            CLOUDY    43  38  82 N22       29.75R
ELKO           CLOUDY    53  34  48 NE17      29.82R
POCATELLO, ID  MOSUNNY   58  32  37 E10       29.79F
BURLEY         PTSUNNY   55  33  43 NW9       29.80S
EVANSTON, WY   CLOUDY    35  27  72 E21G31    29.82S WCI  24
ROCK SPRINGS   CLOUDY    35  25  66 E23G33    29.87R WCI  23
KEMMERER       CLOUDY    34  28  80 E20G28    29.87S WCI  22

$$




USA.gov is the U.S. government's official web portal to all federal, state and local government web resources and services.